COSMOS 2545 (760)

Last updated on Fri Jul 11 2025 00:03:13 GMT+0000 (Coordinated Universal Time)

1 45358U 20018A 25191.13412208 -.00000060 00000+0 00000+0 0 9990 2 45358 64.5577 324.4225 0009043 232.5287 127.3877 2.13102563 41371
UTC large
Height (km)
Speed (km/s)
/
Latitude / Longitude
Inclination (degrees)
Orbital Period (minutes)
Azimuth
Elevation
Range (km)
Doppler Factor

Next 0 passes for location: London (51.5072 / 0.1276)

Sorry there are no passes over London.